• în România
  • Lista ţărilor
  • Pe 7 zile
  • Temperatura apei
  • Hartă satelitară
  • Meteo pe hartă
  • Widget-uri
  • user-avatar
    Intrare

    Meteo pe oră la Abomey

    Astăzi, 18 Octombrie, Miercuri

    Timp Temperatura Precipitaţii Vânt Presiune Umiditate
    00:00 +25°C° 0 mm 2 m/s 740 mmHg 92%
    01:00 +25°C° 0 mm 2 m/s 740 mmHg 93%
    02:00 +25°C° 0 mm 1 m/s 740 mmHg 94%
    03:00 +25°C° 0 mm 1 m/s 739 mmHg 94%
    04:00 +25°C° 0 mm 1 m/s 739 mmHg 94%
    05:00 +25°C° 0 mm 1 m/s 739 mmHg 95%
    06:00 +25°C° 0 mm 1 m/s 740 mmHg 94%
    07:00 +27°C° 0 mm 1 m/s 740 mmHg 86%
    08:00 +28°C° 0 mm 2 m/s 740 mmHg 78%
    09:00 +30°C° 0 mm 2 m/s 741 mmHg 71%
    10:00 +32°C° 0 mm 2 m/s 740 mmHg 63%
    11:00 +34°C° 0 mm 1 m/s 740 mmHg 56%
    12:00 +36°C° 0 mm 1 m/s 740 mmHg 49%
    13:00 +35°C° 0 mm 1 m/s 739 mmHg 50%
    14:00 +35°C° 0 mm 2 m/s 738 mmHg 51%
    15:00 +35°C° 0 mm 2 m/s 738 mmHg 52%
    16:00 +32°C° 0,1 mm 2 m/s 738 mmHg 60%
    17:00 +30°C° 0,1 mm 2 m/s 738 mmHg 67%
    18:00 +29°C° 0,1 mm 2 m/s 738 mmHg 74%
    19:00 +28°C° 0,2 mm 2 m/s 739 mmHg 77%
    20:00 +28°C° 0,2 mm 2 m/s 739 mmHg 80%
    21:00 +27°C° 0,2 mm 3 m/s 740 mmHg 83%
    22:00 +27°C° 0 mm 3 m/s 740 mmHg 84%
    23:00 +27°C° 0 mm 3 m/s 739 mmHg 86%

    Mâine, 19 Octombrie, Joi

    Timp Temperatura Precipitaţii Vânt Presiune Umiditate
    00:00 +26°C° 0 mm 3 m/s 739 mmHg 87%
    01:00 +26°C° 0 mm 3 m/s 739 mmHg 88%
    02:00 +26°C° 0 mm 2 m/s 739 mmHg 89%
    03:00 +26°C° 0 mm 2 m/s 738 mmHg 90%
    04:00 +26°C° 0 mm 2 m/s 739 mmHg 91%
    05:00 +25°C° 0 mm 2 m/s 739 mmHg 92%
    06:00 +25°C° 0 mm 2 m/s 739 mmHg 93%
    07:00 +27°C° 0 mm 2 m/s 740 mmHg 86%
    08:00 +28°C° 0 mm 2 m/s 740 mmHg 80%
    09:00 +30°C° 0 mm 2 m/s 741 mmHg 73%
    10:00 +31°C° 0 mm 2 m/s 741 mmHg 67%
    11:00 +32°C° 0 mm 2 m/s 740 mmHg 61%
    12:00 +35°C° 0 mm 2 m/s 740 mmHg 55%
    13:00 +34°C° 0,4 mm 2 m/s 740 mmHg 57%
    14:00 +34°C° 0,4 mm 2 m/s 739 mmHg 60%
    15:00 +32°C° 0,4 mm 2 m/s 738 mmHg 62%
    16:00 +31°C° 0,2 mm 2 m/s 738 mmHg 67%
    17:00 +30°C° 0,2 mm 2 m/s 739 mmHg 72%
    18:00 +28°C° 0,2 mm 1 m/s 739 mmHg 78%
    19:00 +28°C° 0,1 mm 2 m/s 739 mmHg 80%
    20:00 +27°C° 0,1 mm 2 m/s 740 mmHg 83%
    21:00 +27°C° 0,1 mm 2 m/s 741 mmHg 85%
    22:00 +27°C° 0 mm 2 m/s 740 mmHg 86%
    23:00 +26°C° 0 mm 2 m/s 740 mmHg 87%

    Poimâine, 20 Octombrie, Vineri

    Timp Temperatura Precipitaţii Vânt Presiune Umiditate
    00:00 +26°C° 0 mm 2 m/s 740 mmHg 88%
    01:00 +26°C° 0 mm 2 m/s 739 mmHg 89%
    02:00 +25°C° 0 mm 2 m/s 739 mmHg 91%
    03:00 +25°C° 0 mm 1 m/s 738 mmHg 92%
    04:00 +25°C° 0 mm 1 m/s 739 mmHg 93%
    05:00 +25°C° 0 mm 1 m/s 739 mmHg 93%
    06:00 +25°C° 0 mm 1 m/s 739 mmHg 93%
    07:00 +26°C° 0 mm 2 m/s 740 mmHg 87%
    08:00 +28°C° 0 mm 2 m/s 740 mmHg 80%
    09:00 +29°C° 0 mm 2 m/s 741 mmHg 73%
    10:00 +31°C° 0 mm 2 m/s 740 mmHg 66%
    11:00 +34°C° 0 mm 2 m/s 740 mmHg 59%
    12:00 +35°C° 0 mm 2 m/s 739 mmHg 53%
    13:00 +35°C° 0 mm 2 m/s 739 mmHg 53%
    14:00 +35°C° 0 mm 2 m/s 738 mmHg 53%
    15:00 +35°C° 0 mm 2 m/s 738 mmHg 53%
    16:00 +32°C° 0,3 mm 2 m/s 738 mmHg 62%
    17:00 +30°C° 0,3 mm 2 m/s 738 mmHg 70%
    18:00 +28°C° 0,3 mm 2 m/s 739 mmHg 78%
    19:00 +28°C° 0 mm 2 m/s 739 mmHg 81%
    20:00 +27°C° 0 mm 2 m/s 740 mmHg 84%
    21:00 +26°C° 0 mm 3 m/s 741 mmHg 87%
    22:00 +26°C° 0,1 mm 2 m/s 741 mmHg 88%
    23:00 +25°C° 0,1 mm 2 m/s 740 mmHg 90%

    21 Octombrie, Sâmbătă

    Timp Temperatura Precipitaţii Vânt Presiune Umiditate
    00:00 +25°C° 0,1 mm 2 m/s 740 mmHg 91%
    01:00 +25°C° 0 mm 2 m/s 740 mmHg 92%
    02:00 +25°C° 0 mm 2 m/s 739 mmHg 93%
    03:00 +25°C° 0 mm 2 m/s 739 mmHg 94%
    04:00 +25°C° 0 mm 2 m/s 739 mmHg 94%
    05:00 +24°C° 0 mm 1 m/s 739 mmHg 95%
    06:00 +24°C° 0 mm 1 m/s 739 mmHg 95%
    07:00 +26°C° 0 mm 2 m/s 740 mmHg 86%
    08:00 +28°C° 0 mm 2 m/s 740 mmHg 77%
    09:00 +30°C° 0 mm 2 m/s 741 mmHg 68%
    10:00 +32°C° 0 mm 2 m/s 740 mmHg 62%
    11:00 +35°C° 0 mm 2 m/s 740 mmHg 55%
    12:00 +35°C° 0 mm 1 m/s 739 mmHg 49%
    13:00 +35°C° 0 mm 1 m/s 739 mmHg 50%
    14:00 +35°C° 0 mm 1 m/s 738 mmHg 50%
    15:00 +35°C° 0 mm 1 m/s 737 mmHg 51%
    16:00 +34°C° 0,1 mm 2 m/s 738 mmHg 57%
    17:00 +31°C° 0,1 mm 2 m/s 738 mmHg 64%
    18:00 +29°C° 0,1 mm 3 m/s 738 mmHg 70%
    19:00 +29°C° 0 mm 3 m/s 739 mmHg 74%
    20:00 +28°C° 0 mm 3 m/s 740 mmHg 78%
    21:00 +27°C° 0 mm 3 m/s 740 mmHg 82%
    22:00 +26°C° 0,1 mm 3 m/s 740 mmHg 85%
    23:00 +26°C° 0,1 mm 3 m/s 740 mmHg 87%

    22 Octombrie, Duminică

    Timp Temperatura Precipitaţii Vânt Presiune Umiditate
    00:00 +26°C° 0,1 mm 3 m/s 740 mmHg 89%
    01:00 +26°C° 0 mm 3 m/s 740 mmHg 91%
    02:00 +25°C° 0 mm 2 m/s 739 mmHg 92%
    03:00 +25°C° 0 mm 2 m/s 739 mmHg 94%
    04:00 +25°C° 0 mm 2 m/s 739 mmHg 93%
    05:00 +25°C° 0 mm 1 m/s 740 mmHg 93%
    06:00 +25°C° 0 mm 1 m/s 740 mmHg 93%
    07:00 +27°C° 0 mm 2 m/s 740 mmHg 86%
    08:00 +28°C° 0 mm 2 m/s 741 mmHg 78%
    09:00 +30°C° 0 mm 3 m/s 741 mmHg 71%
    10:00 +31°C° 0 mm 3 m/s 740 mmHg 68%
    11:00 +33°C° 0 mm 3 m/s 740 mmHg 64%
    12:00 +34°C° 0 mm 3 m/s 739 mmHg 61%
    13:00 +33°C° 0 mm 3 m/s 739 mmHg 62%
    14:00 +33°C° 0 mm 3 m/s 738 mmHg 63%
    15:00 +33°C° 0 mm 3 m/s 738 mmHg 64%
    16:00 +31°C° 0,1 mm 3 m/s 738 mmHg 69%
    17:00 +29°C° 0,1 mm 3 m/s 738 mmHg 74%
    18:00 +28°C° 0,1 mm 2 m/s 739 mmHg 79%
    19:00 +28°C° 0 mm 2 m/s 739 mmHg 81%
    20:00 +27°C° 0 mm 2 m/s 740 mmHg 83%
    21:00 +26°C° 0 mm 2 m/s 740 mmHg 85%
    22:00 +26°C° 0 mm 2 m/s 740 mmHg 86%
    23:00 +26°C° 0 mm 2 m/s 740 mmHg 87%

    23 Octombrie, Luni

    Timp Temperatura Precipitaţii Vânt Presiune Umiditate
    00:00 +26°C° 0 mm 2 m/s 740 mmHg 88%
    01:00 +25°C° 0 mm 2 m/s 739 mmHg 89%
    02:00 +25°C° 0 mm 2 m/s 739 mmHg 90%
    03:00 +25°C° 0 mm 2 m/s 739 mmHg 91%
    04:00 +25°C° 0 mm 2 m/s 739 mmHg 91%
    05:00 +25°C° 0 mm 2 m/s 739 mmHg 92%
    06:00 +24°C° 0 mm 1 m/s 740 mmHg 93%
    07:00 +27°C° 0 mm 2 m/s 740 mmHg 84%
    08:00 +29°C° 0 mm 2 m/s 740 mmHg 75%
    09:00 +31°C° 0 mm 3 m/s 740 mmHg 65%
    10:00 +33°C° 0 mm 3 m/s 740 mmHg 61%
    11:00 +34°C° 0 mm 3 m/s 739 mmHg 56%
    12:00 +35°C° 0 mm 3 m/s 739 mmHg 52%
    13:00 +35°C° 0 mm 3 m/s 738 mmHg 53%
    14:00 +35°C° 0 mm 3 m/s 738 mmHg 54%
    15:00 +34°C° 0 mm 3 m/s 737 mmHg 56%
    16:00 +33°C° 0,3 mm 3 m/s 738 mmHg 62%
    17:00 +30°C° 0,3 mm 3 m/s 738 mmHg 69%
    18:00 +28°C° 0,3 mm 3 m/s 738 mmHg 76%
    19:00 +28°C° 0 mm 3 m/s 739 mmHg 79%
    20:00 +27°C° 0 mm 3 m/s 739 mmHg 82%
    21:00 +26°C° 0 mm 2 m/s 740 mmHg 86%
    22:00 +26°C° 0 mm 2 m/s 740 mmHg 87%
    23:00 +26°C° 0 mm 2 m/s 739 mmHg 89%
    Arată mai mult